Location: Alessandria
(44.9000°N, 8.6170°E)
Time: 01:55:40
(UTC+02:00)

ISS - Pass Details

Date: 13 May 2021
Orbit: 417 x 422 km, 51.6° (Epoch: 14 June)

Event Time Altitude Azimuth Distance (km) Brightness Sun altitude
Rises 05:13:53 0° 298° (WNW) 2,375 -0.2 -7.6°
Reaches altitude 10° 05:16:00 10° 295° (WNW) 1,508 -1.2 -7.3°
Maximum altitude 05:19:21 63° 215° (SW) 476 -3.7 -6.9°
Drops below altitude 10° 05:22:42 10° 133° (SE) 1,502 -0.8 -6.4°
Sets 05:24:48 0° 130° (SE) 2,363 0.3 -6.1°
